Flag for Norway Weather past 2 weeks in Bardufoss, Norway

Now
55 °F

Passing clouds.


Feels Like: 55 °F
Forecast: 46 / 65 °F
Wind: 2 mph from North

Location: Bardufoss

Current Time: Jul 29, 2014 at 11:11:44 PM

Latest Report: Jul 29, 2014 at 10:50 PM


Visibility: N/A

Pressure: 29.83 "Hg

Humidity: 67%

Dew point: 45 °F

Location of BardufossLocation

Historic Weather in Bardufoss — Graph

°F

Bardufoss temperature yesterday

Maximum temperature yesterday: 59 °F (at 12:20 PM)
Minimum temperature yesterday: 52 °F (at 10:50 PM)
Average temperature yesterday: 56 °F

Past Weeks' High & Low Weather Summary

 TemperatureHumidityPressure
High82 °F (Jul 15, 10:50 AM)100% (Jul 18, 4:50 AM)30.30 "Hg (Jul 18, 4:50 AM)
Low50 °F (Jul 29, 1:50 AM)34% (Jul 21, 5:20 PM)29.74 "Hg (Jul 15, 12:20 PM)
Average64 °F73%30.08 "Hg
* Reported Jul 14 9:50 PM — Jul 29 9:50 PM, Bardufoss, Weather by CustomWeather, © 2014

Note: Actual official high and low records may vary slightly from our data, if they occured in-between our weather recording intervals... More about our weather records

Advertising

Bardufoss weather history for previous 24 hours

 ConditionsComfort  
Time TempWeatherWind HumidityBarometerVisibility
9:50 PM
Jul 29
57 °FScattered clouds.7 mph63%29.86 "HgN/A
8:50 PM59 °FPassing clouds.7 mph59%29.86 "HgN/A
7:50 PM61 °FPassing clouds.7 mph55%29.86 "HgN/A
6:50 PM61 °FScattered clouds.6 mph55%29.86 "HgN/A
6:20 PM61 °FScattered clouds.6 mph55%29.86 "HgN/A
5:50 PM61 °FScattered clouds.6 mph55%29.89 "HgN/A
5:20 PM63 °FScattered clouds.5 mph52%29.89 "HgN/A
4:50 PM63 °FPassing clouds.5 mph52%29.89 "HgN/A
4:20 PM61 °FPassing clouds.2 mph55%29.89 "HgN/A
3:50 PM61 °FScattered clouds.8 mph55%29.89 "HgN/A
3:20 PM61 °FScattered clouds.3 mph55%29.92 "HgN/A
2:50 PM61 °FScattered clouds.7 mph55%29.92 "HgN/A
2:20 PM61 °FScattered clouds.5 mph55%29.92 "HgN/A
1:50 PM61 °FPassing clouds.5 mph55%29.92 "HgN/A
1:20 PM59 °FPassing clouds.5 mph59%29.92 "HgN/A
12:50 PM57 °FPassing clouds.7 mph67%29.92 "HgN/A
12:20 PM59 °FScattered clouds.3 mph63%29.92 "HgN/A
11:50 AM59 °FScattered clouds.6 mph63%29.95 "HgN/A
11:20 AM55 °FPartly sunny.6 mph72%29.95 "HgN/A
10:50 AM55 °FPartly sunny.6 mph72%29.95 "HgN/A
10:20 AM55 °FPartly sunny.8 mph72%29.95 "HgN/A
9:50 AM55 °FScattered clouds.7 mph72%29.95 "HgN/A
9:20 AM54 °FScattered clouds.6 mph77%29.95 "HgN/A
8:50 AM52 °FBroken clouds.8 mph82%29.95 "HgN/A
8:20 AM52 °FBroken clouds.6 mph82%29.95 "HgN/A
7:50 AM50 °FScattered showers. Broken clouds.8 mph88%29.95 "HgN/A
7:20 AM50 °FScattered showers. Broken clouds.7 mph88%29.95 "HgN/A
6:50 AM50 °FScattered showers. Broken clouds.6 mph88%29.95 "HgN/A
6:20 AM50 °FScattered showers. Broken clouds.6 mph88%29.95 "HgN/A
5:50 AM50 °FScattered showers. Broken clouds.7 mph88%29.95 "HgN/A
5:20 AM50 °FDrizzle. Broken clouds.5 mph94%29.95 "HgN/A
4:50 AM50 °FDrizzle. Broken clouds.7 mph94%29.92 "HgN/A
3:50 AM50 °FDrizzle. Broken clouds.6 mph94%29.92 "HgN/A
2:50 AM50 °FScattered showers. Partly cloudy.3 mph94%29.92 "HgN/A
1:50 AM50 °FSleet. Partly cloudy.1 mph100%29.92 "HgN/A
12:50 AM52 °FSleet. Partly cloudy.2 mph88%29.92 "HgN/A
11:50 PM
Jul 28
52 °FSleet. Broken clouds.2 mph94%29.92 "HgN/A
Weather by CustomWeather, © 2014

See weather overviewHow to use our weather pages